Location: Latina
(41.4670°N, 12.8670°E)
Time: 17:28:25
(UTC+02:00)

ISS - Pass Details

Date: 15 May 2021
Orbit: 417 x 422 km, 51.6° (Epoch: 18 June)

Event Time Altitude Azimuth Distance (km) Brightness Sun altitude
Rises 21:59:40 0° 235° (SW) 2,351 0.2 -15.8°
Reaches altitude 10° 22:01:45 10° 236° (WSW) 1,492 -0.8 -16.1°
Maximum altitude 22:05:07 83° 325° (NW) 426 -3.8 -16.6°
Drops below altitude 10° 22:08:29 10° 53° (NE) 1,503 -1.0 -17.0°
Sets 22:10:36 0° 55° (NE) 2,371 0.0 -17.3°
